Location: Nianha
(10.8000°N, 4.6333°W)
Time: 20:50:16
(UTC+00:00)

Cosmos 1697 Rocket - Pass Details

Date: 14 November 2019
Orbit: 834 x 842 km, 71.0° (Epoch: 20 January)

Event Time Altitude Azimuth Distance (km) Brightness Sun altitude
Rises 04:46:49 0° 1° (N) 3,370 5.7 -21.3°
Reaches altitude 10° 04:49:32 10° 11° (NNE) 2,436 5.0 -20.6°
Maximum altitude 04:54:24 30° 72° (ENE) 1,437 4.4 -19.5°
Drops below altitude 10° 04:59:15 10° 133° (SE) 2,437 6.0 -18.3°
Sets 05:01:57 0° 143° (SE) 3,371 6.7 -17.7°
